TimeCST,TemperatureF,Dew PointF,Humidity,Sea Level PressureIn,VisibilityMPH,Wind Direction,Wind SpeedMPH,Gust SpeedMPH,PrecipitationIn,Events,Conditions,WindDirDegrees,DateUTC
12:53 AM,23.0,19.9,88,29.96,10.0,West,5.8,-,N/A,,Clear,280,2013-02-17 06:53:00
1:53 AM,23.0,19.0,85,29.94,10.0,Calm,Calm,-,N/A,,Clear,0,2013-02-17 07:53:00
2:53 AM,19.0,17.1,92,29.93,10.0,NNW,3.5,-,N/A,,Clear,340,2013-02-17 08:53:00
3:53 AM,21.0,18.0,88,29.90,10.0,Calm,Calm,-,N/A,,Clear,0,2013-02-17 09:53:00
4:53 AM,21.0,18.0,88,29.89,10.0,West,3.5,-,N/A,,Clear,280,2013-02-17 10:53:00
5:53 AM,19.9,18.0,92,29.88,10.0,Calm,Calm,-,N/A,,Clear,0,2013-02-17 11:53:00
6:53 AM,17.6,15.8,93,29.81,10.0,Calm,Calm,-,N/A,,Clear,0,2013-02-17 12:53:00
7:53 AM,19.9,16.0,85,29.88,10.0,Calm,Calm,-,N/A,,Clear,0,2013-02-17 13:53:00
8:53 AM,28.0,23.0,81,29.85,10.0,NNE,3.5,-,N/A,,Clear,30,2013-02-17 14:53:00
9:53 AM,35.6,26.6,70,29.76,10.0,Calm,Calm,-,N/A,,Clear,0,2013-02-17 15:53:00
10:53 AM,48.0,27.0,44,29.76,10.0,SSW,8.1,-,N/A,,Clear,210,2013-02-17 16:53:00
11:53 AM,53.1,19.9,27,29.73,10.0,SW,10.4,-,N/A,,Clear,230,2013-02-17 17:53:00
12:53 PM,55.0,19.9,25,29.70,10.0,WSW,10.4,-,N/A,,Clear,240,2013-02-17 18:53:00
1:53 PM,55.9,19.9,25,29.66,10.0,West,10.4,-,N/A,,Clear,270,2013-02-17 19:53:00
2:53 PM,57.0,19.9,24,29.65,10.0,WNW,8.1,-,N/A,,Clear,290,2013-02-17 20:53:00
3:53 PM,54.0,24.1,31,29.62,10.0,WNW,5.8,-,N/A,,Clear,300,2013-02-17 21:53:00
4:53 PM,52.0,25.0,35,29.59,10.0,North,3.5,-,N/A,,Clear,350,2013-02-17 22:53:00
5:53 PM,45.0,25.0,46,29.60,10.0,North,3.5,-,N/A,,Clear,350,2013-02-17 23:53:00
6:53 PM,36.0,25.0,64,29.62,10.0,NE,3.5,-,N/A,,Clear,50,2013-02-18 00:53:00
7:53 PM,34.0,24.1,67,29.64,10.0,NNW,3.5,-,N/A,,Clear,340,2013-02-18 01:53:00
8:53 PM,30.9,23.0,72,29.64,10.0,Calm,Calm,-,N/A,,Clear,0,2013-02-18 02:53:00
9:53 PM,44.1,26.1,49,29.62,10.0,North,19.6,28.8,N/A,,Clear,360,2013-02-18 03:53:00
11:53 PM,39.0,27.0,62,29.65,10.0,North,19.6,27.6,N/A,,Clear,360,2013-02-18 05:53:00